www.pogodaiklimat.ru

Погода и климат >> Архив погоды >> Украина >> Овруч


ПОГОДА в Овруче

  • Прогноз погоды в Овруче
  • Монитор погоды в Овруче

АРХИВ ПОГОДЫ в Овруче

Время (UTC), дата Ветер
(напр.,м/с)
 
Видим.   Явления Облачность Т
(С)
Тd
(С)
f
(%)
Тe
(С)
Тes
(С)
Комфортность P
(гПа)
Po
(гПа)
Тmin
(С)
Tmax
(С)
R
(мм)
R24
(мм)
S
(см)
15 15.09 З 2 10 км 10/0
[Ac und]
+18.0 +6.8 48 +19 +19 1018.0 997.9
18 15.09 ЮЗ 1 10 км 4/0
[Ac trans]
+13.7 +6.3 61 +14 +14 1016.3 995.9 +19.6
21 15.09 З 1 10 км 9/0
[Ac trans]
+10.8 +4.7 66 +11 +11 1014.4 993.9
00 16.09 Ю 2 10 км 8/0
[Ci fib]
+12.4 +6.7 68 +12 +12 1012.5 992.1
03 16.09 ЮЗ 2 10 км 6/0
[Ac trans]
+11.9 +6.6 70 +11 +11 1011.5 991.1
06 16.09 ЮЗ 2 10 км в посл. час ливневой дождь 10/10 700 м
[Cb calv]
+13.4 +8.5 72 +13 +13 1011.0 990.7 +10.6 0.0
09 16.09 З 2 10 км 8/0
[Ac trans Ci fib]
+19.0 +8.6 51 +20 +26 1010.3 990.4
12 16.09 З 3 10 км 8/3 1000 м
[Cu hum Ac cast Ci fib]
+21.3 +9.8 48 +23 +25 комфорт 1009.1 989.4
15 16.09 З 2 10 км 9/9 720 м
[Sc]
+20.3 +10.2 52 +22 +23 комфорт 1008.2 988.4
18 16.09 СЗ 1 10 км ясно +13.3 +6.9 65 +14 +14 1010.0 989.7 +21.4
21 16.09 штиль 0 10 км 3/0
[Ac trans]
+9.2 +6.1 81 +8 +8 1010.1 989.5
00 17.09 штиль 0 10 км 9/0
[Ac trans]
+8.0 +5.3 83 +7 +7 1009.7 989.0
03 17.09 СЗ 1 10 км ясно +6.1 +4.3 88 +5 +5 1009.9 989.1
06 17.09 З 1 10 км 8/0
[Ci]
+10.4 +5.8 73 +10 +12 1009.7 989.2 +6.1
09 17.09 ЮЗ 2 20 км 4/4 600 м
[Cu hum]
+15.0 +4.6 50 +15 +20 1009.0 988.9
12 17.09 З 3 20 км 6/6 600 м
[Cu med, cong]
+16.8 +2.9 39 +17 +19 1007.8 987.8
15 17.09 ЮЗ 2 10 км 8/4 600 м
[Cu Sc Cc]
+16.0 +1.7 38 +16 +16 1006.3 986.3
18 17.09 З 1 10 км 8/8 840 м
[Sc]
+12.5 +3.7 55 +13 +13 1005.4 985.2 +18.2
21 17.09 ЮЗ 1 10 км 9/9 750 м
[Sc]
+12.4 +4.1 57 +13 +13 1003.9 983.7
00 18.09 З 1 10 км 8/8 800 м
[Sc]
+10.6 +3.6 62 +11 +11 1001.9 981.6
03 18.09 З 2 4000 м слаб. ливневой дождь 9/9 660 м
[Cb calv]
+7.8 +6.3 90 +6 +6 1002.0 981.5
06 18.09 ЮЗ 3 10 км {ливн. осадки} 8/8 700 м
[Cb calv]
+7.8 +4.9 82 +5 +5 1003.4 982.9 +6.6 1
09 18.09 З 6 4000 м слаб. ливневой дождь 10/10 630 м
[Cb calv]
+8.0 +5.3 83 +4 +4 1005.4 984.8
12 18.09 ЮЗ 4 10 км {ливн. осадки} 6/6 700 м
[Cb calv]
+10.7 +4.4 65 +8 +10 1006.4 986.0
15 18.09 З 6 10 км {ливн. осадки} 8/8 660 м
[Cb calv]
+9.7 +5.3 74 +6 +6 1008.8 988.3
18 18.09 ЮЗ 2 10 км {ливн. осадки} 6/3 600 м
[Cb calv Ac trans]
+8.2 +6.2 87 +6 +6 1012.1 991.4 +11.7 3
21 18.09 ЮЗ 2 4000 м дымка 8/0
[Ac trans]
+7.3 +6.2 93 +5 +5 1014.1 993.3
00 19.09 З 2 4000 м дымка 3/0
[Ac trans]
+7.0 +5.6 91 +5 +5 1015.0 994.2
03 19.09 ЮЗ 1 4000 м дымка 9/8 660 м
[Cb calv Ac trans]
+6.4 +5.7 95 +5 +5 1015.7 994.8
06 19.09 З 2 10 км 10 баллов +7.8 +5.6 86 +5.6
09 19.09 З 2 10 км 9/6 700 м
[Cb calv Ac cast]
+10.5 +6.6 77 +9 +11 1017.5 996.9
12 19.09 З 3 10 км 8/8 660 м
[Cb calv]
+14.0 +4.8 54 +13 +14 1016.8 996.4
15 19.09 З 1 10 км {ливн. осадки} 4/4 600 м
[Cu Sc]
+10.6 +7.3 80 +10 +11 1018.0 997.4
18 19.09 З 1 4000 м дымка {ливн. осадки} 3/0
[Ac trans]
+7.8 +6.9 94 +7 +7 1019.2 998.3 +14.1 1
21 19.09 штиль 0 4000 м дымка ясно +6.1 +5.4 95
00 20.09 штиль 0 4000 м дымка 9/0
[Ac trans]
+5.3 +4.6 95 +4 +4 1019.0 998.0
03 20.09 СЗ 1 4000 м дымка 9/0
[Ac trans]
+5.7 +4.5 92 +4 +4 1018.8 997.8
06 20.09 Ю 1 4000 м дымка 10/10 800 м
[Sc]
+5.7 +4.5 92 +4 +4 1019.3 998.3 +4.2
09 20.09 З 1 4000 м слаб. ливневой дождь 10/10 660 м
[Cb calv]
+6.6 +5.1 90 +5 +5 1019.5 998.5
12 20.09 З 1 10 км в посл. час ливневой дождь 9/9 660 м
[Cb calv]
+8.9 +6.3 84 +8 +9 1018.7 997.9
15 20.09 З 2 10 км {ливн. осадки} 8/8 700 м
[Cb calv]
+9.3 +3.0 65 +8 +8 1018.8 998.1
18 20.09 СЗ 1 10 км {ливн. осадки} 8/8 660 м
[Cb calv]
+6.8 +3.1 77 +6 +6 1021.0 1000.0 +10.6 0.6
21 20.09 С 2 10 км ясно +4.4 +2.7 89 +2 +2 1021.9 1000.7
00 21.09 СЗ 2 4000 м дымка ясно +2.6 +1.6 93 -1 -1 1022.9 1001.6
03 21.09 СЗ 1 4000 м дымка ясно +1.7 +0.8 94 1023.3 1001.9
06 21.09 штиль 0 10 км 8/0
[Ac trans Ci fib]
+5.0 +1.5 78 +4 +6 1023.6 1002.4 +1.1
09 21.09 З 2 10 км 9/0
[Ac trans]
+11.1 +0.2 47 +10 +14 1022.5 1001.8
12 21.09 ЮЗ 3 10 км 9/9 660 м
[Cb calv]
+11.8 +2.5 53 +10 +11 1020.4 999.8
15 21.09 Ю 4 4000 м в посл. час ливневой дождь 10/10 630 м
[Cb calv]
+9.3 +7.8 90 +6 +6 1018.6 997.9
18 21.09 Ю 2 4000 м слаб. ливневой дождь 10/10 500 м
[Cb calv]
+9.9 +9.1 95 +8 +8 1017.6 996.9 +12.1 0.4
21 21.09 З 3 4000 м слаб. ливневой дождь 10/10 500 м
[Cb calv]
+12.3 +10.8 91 +11 +11 1016.1 995.6
00 22.09 З 3 4000 м дымка {ливн. осадки} 10/10 500 м
[Cb calv]
+12.0 +10.7 92 +10 +10 1015.1 994.6
03 22.09 З 3 4000 м дымка {ливн. осадки} 10/10 540 м
[Cb calv]
+11.8 +10.4 91 +10 +10 1015.2 994.7
06 22.09 СЗ 2 10 км 10 баллов +12.3 +10.2 87 +10.1 0.0
09 22.09 СЗ 3 10 км 8/8 700 м
[Cb calv]
+16.0 +9.0 63 +16 +17 1015.9 995.7
12 22.09 СЗ 2 10 км 7 баллов +19.6 +8.6 49

 

Местоположение метеостанции Овруч (Житомирская область, Украина): широта 51.32 долгота 28.78 высота над уровнем моря 170 м.

В архиве по умолчанию представлена погода в Овруче за последнюю неделю. Архивные данные за месяц целиком и за предыдущие месяцы, начиная с января 2011 года, Вы можете получить, выбрав интересующий диапазон дат из раскрывающегося списка и нажав кнопку "Ввод!".


*Определитесь, кто Вы:
робот инопланетянин человек

Внимание! Время в таблицах - всемирное. Для получения местного времени необходимо прибавить поправку, которая равна 2 ч.

Смотрите также архив погоды в соседних городах и на ближайших метеорологических станциях:

Погода в Коростени (Житомирская область, Украина) (42 км)
Погода в Олевске (Житомирская область, Украина) (77 км)
Погода в Мозыре (Гомельская область, Беларусь) (85 км)
Погода в Тетереве (Киевская область, Украина) (89 км)
Погода в Чернобыле (Киевская область, Украина) (101 км)
Погода в Новограде-Волынском (Житомирская область, Украина) (114 км)
Погода в Брагине (Гомельская область, Беларусь) (115 км)
Погода в Житковичах (Гомельская область, Беларусь) (118 км)
Погода в Житомире (Житомирская область, Украина) (121 км)
Погода в Василевичах (Гомельская область, Беларусь) (127 км)

Пояснения к столбцам:

Ветер - указаны скорость ветра в м/с - средняя за 10 мин, порывы в срок и между сроками (в фигурных скобках) и направление, откуда дует ветер: С - северный, СВ - северо-восточный, В - восточный, ЮВ - юго-восточный, Ю - южный, ЮЗ - юго-западный, З - западный, СЗ - северо-западный.
Видимость - горизонтальная дальность видимости в метрах или километрах. При видимости от 1 до 10 км при отсутствии осадков обычно наблюдается дымка, при ухудшении видимости до 1 км и менее - туман. В сухую погоду видимость может ухудшаться дымом, пылью или мглою.
Явления - указаны атмосферные явления, наблюдавшиеся в срок или в последний час перед сроком; фигурными скобками обозначены явления, наблюдавшиеся между сроками (за 1-3 часа до срока); квадратными скобками обозначены град или гололедные отложения с указанием их диаметра в мм.
Облачность - указаны через наклонную черту общая и нижняя облачность в баллах и высота нижней границы облаков в метрах; квадратными скобками обозначены формы облаков: Ci - перистые, Cs - перисто-слоистые, Cc - перисто-кучевые, Ac - высококучевые, As - высокослоистые, Sc - слоисто-кучевые, Ns - слоисто-дождевые, Cu - кучевые, Cb - кучево-дождевые. Подробнее классификацию облаков см. в Атласе облаков (PDF).
T - Температура воздуха - температура, измеренная на высоте 2 м над землей.
Td - Температура точки росы - температура, при понижении до которой содержащийся в воздухе водяной пар достигнет насыщения.
f - Относительная влажность воздуха - влажноcть воздуха, измеренная на высоте 2 м над землей.
Te - Эффективная температура - температура, которую ощущает одетый по сезону человек в тени. Характеристика душности погоды. При расчете учитывается влияние влажности воздуха и скорости ветра на теплоощущения человека.
Tes - Эффективная температура на солнце - температура, которую ощущает человек, с поправкой на солнечный нагрев. Характеристика знойности погоды. Зависит от высоты солнца над горизонтом, облачности и скорости ветра. Ночью, в пасмурную погоду, а также при ветре 12 м/с и более поправка равна нулю.
P - Атмосферное давление - приведенное к уровню моря атмосферное давление.
Po - Атмосферное давление - измеренное на уровне метеостанции атмосферное давление.
Tmin - Минимальная температура - минимум температуры воздуха на высоте 2 м над землей.
Tmax - Максимальная температура - максимум температуры воздуха на высоте 2 м над землей.
R - Количество осадков - Количество выпавших осадков за период времени, мм. При наведении курсора мыши на число - период времени, за который выпало указанное количество осадков.
R24 - Количество осадков - Количество выпавших осадков за 24 часа, мм.
S - Снежный покров - Высота снежного покрова, см. При наведении курсора мыши на число - состояние снежного покрова и степень покрытия местности в баллах.